Notices

What's New in latest Release from April 7th, 2021:

- Updated Glossary, including Speed of Maximum Gust, and Total Hourly Precipitation

- Updated national and regional climate services offices contacts and prices information

- Addition of station inventory lists for 1981-2010, 1971-2000, and 1961-1990 Normals.

If you haven't already, please take our survey and provide feedback about our website: https://eccc.sondage-survey.ca/f/LanguageSelection.aspx?s=442ca660-fcf1-47c0-95a9-59707d6fd709

Hourly Data Report for August 03, 2018

TORONTO CITY
ONTARIO
Current Station Operator: ECCC - MSC

43°40'00.000" N
79°24'00.000" W
112.50 m
6158355
71508
XTO

Download Data

Hourly Data (August 2018)
Hourly Data Report for August 3, 2018
TIME
LST
Temp Definition
°C
Dew Point Definition
°C
Rel Hum Definition
%
Precip. Amount Definition
mm

Wind Dir Definition
10's deg

Wind Spd Definition
km/h
Visibility Definition
km
Stn Press Definition
kPa
Hmdx Definition


Wind Chill Definition


Weather Definition


00:00 22.4 17.9 76 0.0 LegendMM LegendMM   100.41 28   LegendNANA
01:00 22.1 18.1 78 0.0 LegendMM LegendMM   100.40 28   LegendNANA
02:00 21.7 18.1 80 0.0 LegendMM LegendMM   100.39 28   LegendNANA
03:00 20.8 17.7 82 0.0 LegendMM LegendMM   100.40 27   LegendNANA
04:00 21.0 17.9 83 0.0 LegendMM LegendMM   100.37 27   LegendNANA
05:00 20.9 17.7 82 0.0 LegendMM LegendMM   100.42 27   LegendNANA
06:00 21.5 18.6 84 0.0 LegendMM LegendMM   100.48 28   LegendNANA
07:00 22.5 18.9 81 0.0 LegendMM LegendMM   100.50 29   LegendNANA
08:00 23.8 18.2 71 0.0 LegendMM LegendMM   100.53 30   LegendNANA
09:00 24.8 15.7 57 0.0 LegendMM LegendMM   100.53 29   LegendNANA
10:00 25.9 17.8 61 0.0 LegendMM LegendMM   100.53 32   LegendNANA
11:00 26.5 17.2 57 0.0 LegendMM LegendMM   100.54 32   LegendNANA
12:00 26.5 17.8 59 0.0 LegendMM LegendMM   100.54 32   LegendNANA
13:00 28.1 18.3 56 0.0 LegendMM LegendMM   100.50 34   LegendNANA
14:00 27.2 18.0 57 0.0 LegendMM LegendMM   100.45 33   LegendNANA
15:00 26.4 18.3 61 0.0 LegendMM LegendMM   100.40 33   LegendNANA
16:00 26.1 18.7 64 0.0 LegendMM LegendMM   100.38 33   LegendNANA
17:00 25.0 17.6 64 0.0 LegendMM LegendMM   100.38 31   LegendNANA
18:00 24.5 19.0 71 0.0 LegendMM LegendMM   100.39 31   LegendNANA
19:00 24.0 19.0 74 0.0 LegendMM LegendMM   100.41 31   LegendNANA
20:00 23.6 19.2 76 0.0 LegendMM LegendMM   100.42 31   LegendNANA
21:00 23.6 19.1 76 0.0 LegendMM LegendMM   100.40 30   LegendNANA
22:00 23.2 18.0 73 0.0 LegendMM LegendMM   100.44 29   LegendNANA
23:00 23.0 18.6 77 0.0 LegendMM LegendMM   100.46 29   LegendNANA

Notes on Data Quality.

Legend

  • E = Estimated
  • M = Missing
  • NA = Not Available*
  • [empty] = Indicates an unobserved value
Date modified: